| time (UTC) | temp F | wind direction | speed knots | gust knots | rain 1hr in | rain 24hr in | rain mn in | humidity % | barometer mb |
| 20260504214528 | 55 | 335 | 13.9 | 17.4 | 0.00 | 0.00 | 0.00 | 80 | 1011.8 |
| 20260504214009 | 55 | 128 | 13.9 | 18.2 | 0.00 | 0.00 | 0.00 | 80 | 1011.9 |
| 20260504213507 | 55 | 335 | 13.9 | 19.1 | 0.00 | 0.00 | 0.00 | 80 | 1011.9 |
| 20260504213022 | 55 | 115 | 14.8 | 19.1 | 0.00 | 0.00 | 0.00 | 80 | 1011.9 |
| 20260504212508 | 55 | 130 | 14.8 | 18.2 | 0.00 | 0.00 | 0.00 | 79 | 1011.9 |
| 20260504212008 | 55 | 117 | 13.9 | 18.2 | 0.00 | 0.00 | 0.00 | 79 | 1011.9 |
| 20260504211526 | 55 | 126 | 13.0 | 17.4 | 0.00 | 0.00 | 0.00 | 79 | 1011.9 |
| 20260504211008 | 56 | 130 | 12.2 | 18.2 | 0.00 | 0.00 | 0.00 | 79 | 1011.8 |
| 20260504210512 | 56 | 120 | 13.0 | 20.0 | 0.00 | 0.00 | 0.00 | 79 | 1011.8 |
| 20260504210029 | 56 | 112 | 14.8 | 20.0 | 0.00 | 0.00 | 0.00 | 79 | 1011.8 |
| 20260504205504 | 56 | 123 | 13.9 | 19.1 | 0.00 | 0.00 | 0.00 | 78 | 1011.9 |
| 20260504205006 | 56 | 335 | 14.8 | 19.1 | 0.00 | 0.00 | 0.00 | 78 | 1011.8 |
| 20260504204531 | 56 | 335 | 13.0 | 19.1 | 0.00 | 0.00 | 0.00 | 77 | 1011.9 |
| 20260504204010 | 56 | 335 | 13.0 | 18.2 | 0.00 | 0.00 | 0.00 | 77 | 1011.9 |
| 20260504203507 | 56 | 335 | 12.2 | 18.2 | 0.00 | 0.00 | 0.00 | 77 | 1011.9 |
| 20260504203029 | 56 | 335 | 13.0 | 19.1 | 0.00 | 0.00 | 0.00 | 77 | 1012.0 |
| 20260504202513 | 56 | 146 | 12.2 | 19.1 | 0.00 | 0.00 | 0.00 | 77 | 1011.9 |
| 20260504202010 | 56 | 335 | 13.9 | 19.1 | 0.00 | 0.00 | 0.00 | 77 | 1012.0 |
| 20260504201518 | 56 | 125 | 14.8 | 19.1 | 0.00 | 0.00 | 0.00 | 77 | 1012.0 |
| 20260504201004 | 56 | 335 | 14.8 | 18.2 | 0.00 | 0.00 | 0.00 | 77 | 1012.1 |
| 20260504200504 | 56 | 128 | 13.9 | 18.2 | 0.00 | 0.00 | 0.00 | 77 | 1012.1 |
| 20260504200008 | 56 | 335 | 13.9 | 18.2 | 0.00 | 0.00 | 0.00 | 77 | 1012.1 |
| 20260504195503 | 56 | 335 | 13.9 | 17.4 | 0.00 | 0.00 | 0.00 | 77 | 1012.2 |
| 20260504195004 | 56 | 119 | 13.0 | 17.4 | 0.00 | 0.00 | 0.00 | 77 | 1012.2 |
| 20260504194508 | 57 | 335 | 13.0 | 17.4 | 0.00 | 0.00 | 0.00 | 77 | 1012.3 |
| 20260504194005 | 57 | 335 | 13.0 | 16.5 | 0.00 | 0.00 | 0.00 | 76 | 1012.4 |
| 20260504193505 | 57 | 123 | 12.2 | 16.5 | 0.00 | 0.00 | 0.00 | 77 | 1012.4 |
| 20260504193010 | 57 | 123 | 13.0 | 17.4 | 0.00 | 0.00 | 0.00 | 76 | 1012.4 |
| 20260504192505 | 57 | 128 | 13.0 | 17.4 | 0.00 | 0.00 | 0.00 | 76 | 1012.4 |
| 20260504192004 | 57 | 115 | 13.0 | 16.5 | 0.00 | 0.00 | 0.00 | 76 | 1012.5 |
| 20260504191514 | 57 | 107 | 13.0 | 17.4 | 0.00 | 0.00 | 0.00 | 76 | 1012.6 |
| 20260504191003 | 57 | 335 | 13.0 | 17.4 | 0.00 | 0.00 | 0.00 | 76 | 1012.8 |
| 20260504190503 | 57 | 335 | 13.0 | 19.1 | 0.00 | 0.00 | 0.00 | 75 | 1012.8 |
| 20260504190012 | 57 | 136 | 13.9 | 19.1 | 0.00 | 0.00 | 0.00 | 75 | 1012.8 |
| 20260504185503 | 57 | 113 | 13.9 | 19.1 | 0.00 | 0.00 | 0.00 | 74 | 1012.8 |
| 20260504185004 | 57 | 136 | 13.0 | 19.1 | 0.00 | 0.00 | 0.00 | 74 | 1012.9 |
| 20260504184514 | 57 | 335 | 13.0 | 20.0 | 0.00 | 0.00 | 0.00 | 74 | 1012.9 |
| 20260504184004 | 57 | 147 | 14.8 | 20.0 | 0.00 | 0.00 | 0.00 | 74 | 1013.0 |
| 20260504183505 | 57 | 335 | 13.0 | 19.1 | 0.00 | 0.00 | 0.00 | 75 | 1013.0 |
| 20260504183014 | 57 | 153 | 13.9 | 19.1 | 0.00 | 0.00 | 0.00 | 75 | 1013.0 |
| 20260504182505 | 57 | 335 | 11.3 | 18.2 | 0.00 | 0.00 | 0.00 | 75 | 1013.1 |
| 20260504182007 | 57 | 149 | 13.0 | 19.1 | 0.00 | 0.00 | 0.00 | 75 | 1013.1 |
| 20260504181515 | 57 | 335 | 12.2 | 19.1 | 0.00 | 0.00 | 0.00 | 75 | 1013.1 |
| 20260504181004 | 57 | 335 | 12.2 | 18.2 | 0.00 | 0.00 | 0.00 | 75 | 1013.1 |
| 20260504180506 | 57 | 335 | 12.2 | 20.0 | 0.00 | 0.00 | 0.00 | 75 | 1013.2 |
| 20260504180016 | 57 | 153 | 13.9 | 20.0 | 0.00 | 0.00 | 0.00 | 75 | 1013.2 |
| 20260504175503 | 57 | 335 | 13.9 | 18.2 | 0.00 | 0.00 | 0.00 | 75 | 1013.3 |
| 20260504175006 | 57 | 132 | 12.2 | 20.0 | 0.00 | 0.00 | 0.00 | 76 | 1013.3 |
| 20260504174514 | 56 | 335 | 13.9 | 20.0 | 0.00 | 0.00 | 0.00 | 76 | 1013.3 |
| 20260504174006 | 56 | 134 | 14.8 | 20.0 | 0.00 | 0.00 | 0.00 | 77 | 1013.4 |
| 20260504173506 | 56 | 335 | 13.9 | 20.0 | 0.00 | 0.00 | 0.00 | 77 | 1013.4 |
| 20260504173015 | 56 | 152 | 14.8 | 21.7 | 0.00 | 0.00 | 0.00 | 77 | 1013.4 |
| 20260504172505 | 56 | 335 | 15.6 | 21.7 | 0.00 | 0.00 | 0.00 | 77 | 1013.5 |
| 20260504172006 | 56 | 335 | 15.6 | 20.9 | 0.00 | 0.00 | 0.00 | 77 | 1013.5 |
| 20260504171516 | 56 | 335 | 15.6 | 20.9 | 0.00 | 0.00 | 0.00 | 77 | 1013.5 |
| 20260504171004 | 57 | 335 | 13.9 | 19.1 | 0.00 | 0.00 | 0.00 | 77 | 1013.6 |
| 20260504170503 | 56 | 335 | 13.9 | 19.1 | 0.00 | 0.00 | 0.00 | 77 | 1013.7 |
| 20260504151004 | 55 | 152 | 8.7 | 13.9 | 0.00 | 0.00 | 0.00 | 77 | 1015.1 |
| 20260504150510 | 55 | 151 | 8.7 | 12.2 | 0.00 | 0.00 | 0.00 | 77 | 1015.2 |
| 20260504141007 | 54 | 158 | 7.8 | 13.0 | 0.00 | 0.00 | 0.00 | 77 | 1015.5 |
| 20260504140505 | 54 | 147 | 7.8 | 13.0 | 0.00 | 0.00 | 0.00 | 76 | 1015.5 |
| 20260504130504 | 55 | 184 | 6.1 | 11.3 | 0.00 | 0.00 | 0.00 | 73 | 1015.8 |
| 20260504110505 | 50 | 164 | 7.8 | 13.9 | 0.00 | 0.00 | 0.00 | 75 | 1016.0 |
| 20260504100508 | 50 | 173 | 10.4 | 16.5 | 0.00 | 0.00 | 0.00 | 75 | 1015.7 |
| 20260504081538 | 50 | 178 | 7.0 | 10.4 | 0.00 | 0.00 | 0.00 | 74 | 1015.1 |
| 20260504081002 | 50 | 177 | 7.0 | 10.4 | 0.00 | 0.00 | 0.00 | 73 | 1015.1 |
| 20260504080503 | 50 | 182 | 7.0 | 9.6 | 0.00 | 0.00 | 0.00 | 72 | 1015.0 |
| 20260504050504 | 51 | 198 | 5.2 | 11.3 | 0.00 | 0.00 | 0.00 | 73 | 1014.3 |
| 20260504050020 | 51 | 180 | 5.2 | 11.3 | 0.00 | 0.00 | 0.00 | 73 | 1014.3 |
| 20260504045507 | 51 | 335 | 6.1 | 10.4 | 0.00 | 0.00 | 0.00 | 72 | 1014.3 |
| 20260504045009 | 51 | 169 | 5.2 | 10.4 | 0.00 | 0.00 | 0.00 | 72 | 1014.2 |
| 20260504044524 | 51 | 335 | 5.2 | 11.3 | 0.00 | 0.00 | 0.00 | 72 | 1014.2 |
| 20260504044007 | 51 | 188 | 6.1 | 11.3 | 0.00 | 0.00 | 0.00 | 72 | 1014.2 |
| 20260504043503 | 51 | 180 | 6.1 | 10.4 | 0.00 | 0.00 | 0.00 | 73 | 1014.2 |
| 20260504043031 | 51 | 188 | 6.1 | 10.4 | 0.00 | 0.00 | 0.00 | 73 | 1014.1 |
| 20260504042507 | 51 | 184 | 6.1 | 10.4 | 0.00 | 0.00 | 0.00 | 74 | 1014.2 |
| 20260504042009 | 51 | 186 | 5.2 | 10.4 | 0.00 | 0.00 | 0.00 | 74 | 1014.2 |
| 20260504041524 | 51 | 184 | 6.1 | 10.4 | 0.00 | 0.00 | 0.00 | 74 | 1014.1 |
| 20260504041013 | 51 | 196 | 5.2 | 9.6 | 0.00 | 0.00 | 0.00 | 74 | 1014.1 |
| 20260504040513 | 51 | 196 | 6.1 | 9.6 | 0.00 | 0.00 | 0.00 | 74 | 1014.0 |
| 20260504040028 | 51 | 335 | 5.2 | 9.6 | 0.00 | 0.00 | 0.00 | 74 | 1014.0 |
| 20260504035504 | 51 | 182 | 5.2 | 9.6 | 0.00 | 0.00 | 0.00 | 73 | 1014.0 |
| 20260504035004 | 51 | 190 | 5.2 | 9.6 | 0.00 | 0.00 | 0.00 | 73 | 1014.0 |
| 20260504034519 | 51 | 177 | 6.1 | 10.4 | 0.00 | 0.00 | 0.00 | 73 | 1014.0 |
| 20260504034004 | 51 | 176 | 6.1 | 10.4 | 0.00 | 0.00 | 0.00 | 73 | 1014.0 |
| 20260504033504 | 51 | 175 | 5.2 | 10.4 | 0.00 | 0.00 | 0.00 | 72 | 1013.9 |
| 20260504033023 | 51 | 183 | 5.2 | 10.4 | 0.00 | 0.00 | 0.00 | 72 | 1013.9 |
| 20260504032509 | 51 | 200 | 3.5 | 8.7 | 0.00 | 0.00 | 0.00 | 72 | 1013.8 |
| 20260504032013 | 51 | 335 | 3.5 | 7.8 | 0.00 | 0.00 | 0.00 | 72 | 1013.9 |
| 20260504031531 | 51 | 204 | 3.5 | 7.0 | 0.00 | 0.00 | 0.00 | 72 | 1013.9 |
| 20260504031005 | 51 | 202 | 2.6 | 8.7 | 0.00 | 0.00 | 0.00 | 73 | 1013.9 |
| 20260504030503 | 51 | 335 | 4.3 | 9.6 | 0.00 | 0.00 | 0.00 | 73 | 1013.9 |
| 20260504030026 | 51 | 335 | 3.5 | 11.3 | 0.00 | 0.00 | 0.00 | 73 | 1013.9 |
| 20260504025508 | 51 | 183 | 5.2 | 11.3 | 0.00 | 0.00 | 0.00 | 73 | 1014.0 |
| 20260504025006 | 51 | 164 | 7.0 | 10.4 | 0.00 | 0.00 | 0.00 | 73 | 1014.0 |
| 20260504024530 | 51 | 176 | 6.1 | 9.6 | 0.00 | 0.00 | 0.00 | 73 | 1013.9 |
| 20260504024008 | 52 | 335 | 5.2 | 9.6 | 0.00 | 0.00 | 0.00 | 72 | 1013.9 |
| 20260504023508 | 52 | 175 | 6.1 | 8.7 | 0.00 | 0.00 | 0.00 | 72 | 1013.9 |
| 20260504023014 | 52 | 184 | 5.2 | 8.7 | 0.00 | 0.00 | 0.00 | 72 | 1013.9 |
| 20260504022506 | 52 | 189 | 4.3 | 8.7 | 0.00 | 0.00 | 0.00 | 72 | 1013.9 |
| 20260504022007 | 52 | 173 | 4.3 | 7.8 | 0.00 | 0.00 | 0.00 | 71 | 1013.9 |
| 20260504021524 | 52 | 190 | 3.5 | 8.7 | 0.00 | 0.00 | 0.00 | 70 | 1013.9 |
| 20260504021007 | 52 | 196 | 4.3 | 8.7 | 0.00 | 0.00 | 0.00 | 70 | 1013.9 |
| 20260504020508 | 52 | 204 | 4.3 | 8.7 | 0.00 | 0.00 | 0.00 | 71 | 1013.9 |
| 20260504020028 | 52 | 204 | 5.2 | 8.7 | 0.00 | 0.00 | 0.00 | 72 | 1013.8 |
| 20260504015507 | 52 | 184 | 5.2 | 8.7 | 0.00 | 0.00 | 0.00 | 73 | 1013.9 |
| 20260504015011 | 52 | 163 | 4.3 | 8.7 | 0.00 | 0.00 | 0.00 | 71 | 1013.8 |
| 20260504014524 | 52 | 181 | 4.3 | 7.8 | 0.00 | 0.00 | 0.00 | 70 | 1013.8 |
| 20260504014007 | 53 | 203 | 3.5 | 7.8 | 0.00 | 0.00 | 0.00 | 67 | 1013.7 |
| 20260504013507 | 53 | 198 | 4.3 | 9.6 | 0.00 | 0.00 | 0.00 | 64 | 1013.7 |
| 20260504013034 | 53 | 189 | 5.2 | 9.6 | 0.00 | 0.00 | 0.00 | 66 | 1013.7 |
| 20260504012508 | 53 | 194 | 4.3 | 8.7 | 0.00 | 0.00 | 0.00 | 63 | 1013.6 |
| 20260504012009 | 53 | 195 | 3.5 | 7.8 | 0.00 | 0.00 | 0.00 | 64 | 1013.6 |
| 20260504011528 | 53 | 202 | 3.5 | 8.7 | 0.00 | 0.00 | 0.00 | 63 | 1013.5 |
| 20260504011010 | 54 | 190 | 4.3 | 8.7 | 0.00 | 0.00 | 0.00 | 61 | 1013.5 |
| 20260504010508 | 54 | 191 | 4.3 | 8.7 | 0.00 | 0.00 | 0.00 | 59 | 1013.4 |
| 20260504010021 | 54 | 335 | 3.5 | 7.8 | 0.00 | 0.00 | 0.00 | 58 | 1013.3 |
| 20260504005510 | 54 | 200 | 3.5 | 8.7 | 0.00 | 0.00 | 0.00 | 54 | 1013.2 |
| 20260504005011 | 55 | 197 | 4.3 | 8.7 | 0.00 | 0.00 | 0.00 | 53 | 1013.2 |
| 20260504004532 | 55 | 178 | 4.3 | 7.0 | 0.00 | 0.00 | 0.00 | 50 | 1013.2 |
| 20260504004008 | 55 | 216 | 2.6 | 5.2 | 0.00 | 0.00 | 0.00 | 43 | 1013.1 |
| 20260504003508 | 55 | 335 | 2.6 | 6.1 | 0.00 | 0.00 | 0.00 | 44 | 1013.0 |
| 20260504003029 | 56 | 335 | 3.5 | 6.1 | 0.00 | 0.00 | 0.00 | 45 | 1012.9 |
| 20260504002510 | 56 | 229 | 2.6 | 6.1 | 0.00 | 0.00 | 0.00 | 45 | 1012.8 |
| 20260504002007 | 56 | 229 | 3.5 | 7.0 | 0.00 | 0.00 | 0.00 | 42 | 1012.7 |
| 20260504001524 | 56 | 335 | 4.3 | 7.8 | 0.00 | 0.00 | 0.00 | 41 | 1012.5 |
| 20260504001008 | 57 | 335 | 4.3 | 7.8 | 0.00 | 0.00 | 0.00 | 41 | 1012.5 |
| 20260504000510 | 57 | 335 | 3.5 | 8.7 | 0.00 | 0.00 | 0.00 | 40 | 1012.5 |
| 20260504000027 | 57 | 240 | 4.3 | 8.7 | 0.00 | 0.00 | 0.00 | 39 | 1012.5 |
| 20260503235510 | 58 | 335 | 3.5 | 10.4 | 0.00 | 0.00 | 0.00 | 39 | 1012.4 |
| 20260503235010 | 58 | 335 | 3.5 | 12.2 | 0.00 | 0.00 | 0.00 | 36 | 1012.4 |
| 20260503234528 | 58 | 288 | 7.0 | 12.2 | 0.00 | 0.00 | 0.00 | 35 | 1012.3 |
| 20260503234009 | 58 | 335 | 6.1 | 11.3 | 0.00 | 0.00 | 0.00 | 36 | 1012.2 |
| 20260503233507 | 59 | 335 | 7.8 | 15.6 | 0.00 | 0.00 | 0.00 | 35 | 1012.2 |
| 20260503233026 | 59 | 246 | 6.1 | 15.6 | 0.00 | 0.00 | 0.00 | 35 | 1012.1 |
| 20260503232509 | 59 | 271 | 8.7 | 15.6 | 0.00 | 0.00 | 0.00 | 35 | 1012.0 |
| 20260503232012 | 59 | 335 | 7.0 | 13.0 | 0.00 | 0.00 | 0.00 | 34 | 1012.0 |
| 20260503231529 | 60 | 254 | 7.8 | 13.0 | 0.00 | 0.00 | 0.00 | 31 | 1012.0 |
| 20260503231006 | 60 | 335 | 6.1 | 12.2 | 0.00 | 0.00 | 0.00 | 33 | 1011.9 |
| 20260503230509 | 60 | 274 | 7.8 | 17.4 | 0.00 | 0.00 | 0.00 | 32 | 1011.9 |
| 20260503230020 | 60 | 257 | 7.8 | 17.4 | 0.00 | 0.00 | 0.00 | 31 | 1011.9 |
| 20260503225503 | 60 | 255 | 11.3 | 16.5 | 0.00 | 0.00 | 0.00 | 31 | 1011.9 |
| 20260503225003 | 60 | 335 | 10.4 | 16.5 | 0.00 | 0.00 | 0.00 | 32 | 1011.7 |
| 20260503224504 | 60 | 335 | 7.8 | 19.1 | 0.00 | 0.00 | 0.00 | 32 | 1011.6 |
| 20260503224003 | 60 | 258 | 7.0 | 19.1 | 0.00 | 0.00 | 0.00 | 32 | 1011.6 |
| 20260503223504 | 60 | 246 | 12.2 | 17.4 | 0.00 | 0.00 | 0.00 | 30 | 1011.6 |
| 20260503223013 | 60 | 260 | 10.4 | 19.1 | 0.00 | 0.00 | 0.00 | 31 | 1011.6 |
| 20260503222506 | 60 | 335 | 12.2 | 20.0 | 0.00 | 0.00 | 0.00 | 30 | 1011.6 |
| 20260503222008 | 61 | 234 | 10.4 | 20.0 | 0.00 | 0.00 | 0.00 | 30 | 1011.7 |
| 20260503221505 | 61 | 261 | 9.6 | 16.5 | 0.00 | 0.00 | 0.00 | 31 | 1011.5 |
| 20260503221005 | 61 | 335 | 7.0 | 16.5 | 0.00 | 0.00 | 0.00 | 33 | 1011.5 |
| 20260503220503 | 61 | 335 | 10.4 | 16.5 | 0.00 | 0.00 | 0.00 | 31 | 1011.5 |
| 20260503220007 | 60 | 335 | 8.7 | 22.6 | 0.00 | 0.00 | 0.00 | 31 | 1011.5 |
| 20260503215503 | 60 | 335 | 13.0 | 23.5 | 0.00 | 0.00 | 0.00 | 30 | 1011.5 |
| 20260503215006 | 60 | 335 | 13.9 | 23.5 | 0.00 | 0.00 | 0.00 | 32 | 1011.5 |